TimeEDT,TemperatureF,Dew PointF,Humidity,Sea Level PressureIn,VisibilityMPH,Wind Direction,Wind SpeedMPH,Gust SpeedMPH,PrecipitationIn,Events,Conditions,WindDirDegrees,DateUTC
12:53 AM,82.9,75.0,77,29.90,10.0,West,4.6,-,N/A,,Clear,280,2013-09-27 04:53:00
1:53 AM,82.9,75.9,79,29.88,10.0,West,5.8,-,N/A,,Clear,270,2013-09-27 05:53:00
2:53 AM,82.9,75.0,77,29.86,10.0,West,4.6,-,N/A,,Partly Cloudy,270,2013-09-27 06:53:00
3:53 AM,82.9,78.1,85,29.86,10.0,West,5.8,-,N/A,,Partly Cloudy,260,2013-09-27 07:53:00
4:53 AM,79.0,73.0,82,29.86,10.0,SW,6.9,-,N/A,,Scattered Clouds,220,2013-09-27 08:53:00
5:53 AM,81.0,75.0,82,29.86,10.0,SW,8.1,-,N/A,,Scattered Clouds,220,2013-09-27 09:53:00
6:07 AM,78.8,73.4,83,29.86,10.0,South,6.9,18.4,0.02,,Scattered Clouds,190,2013-09-27 10:07:00
6:53 AM,79.0,75.0,88,29.87,10.0,SSW,3.5,-,0.02,,Scattered Clouds,210,2013-09-27 10:53:00
7:53 AM,82.0,77.0,85,29.88,10.0,West,5.8,-,N/A,,Mostly Cloudy,280,2013-09-27 11:53:00
7:55 AM,82.4,75.2,79,29.88,0.8,West,6.9,-,N/A,,Haze,280,2013-09-27 11:55:00
8:04 AM,82.4,75.2,79,29.89,10.0,West,6.9,-,N/A,,Mostly Cloudy,280,2013-09-27 12:04:00
8:53 AM,84.0,75.9,76,29.89,10.0,WNW,12.7,-,N/A,,Scattered Clouds,290,2013-09-27 12:53:00
9:53 AM,84.9,77.0,77,29.90,10.0,West,11.5,-,N/A,,Scattered Clouds,280,2013-09-27 13:53:00
10:53 AM,87.1,75.9,69,29.91,10.0,NW,11.5,-,N/A,,Scattered Clouds,310,2013-09-27 14:53:00
11:53 AM,87.1,75.9,69,29.91,10.0,WNW,10.4,-,N/A,,Scattered Clouds,290,2013-09-27 15:53:00
12:15 PM,87.8,77.0,70,29.91,10.0,NNW,10.4,-,N/A,,Mostly Cloudy,330,2013-09-27 16:15:00
12:53 PM,87.1,75.9,69,29.91,10.0,North,12.7,-,N/A,,Mostly Cloudy,10,2013-09-27 16:53:00
1:21 PM,86.0,75.2,70,29.90,10.0,North,11.5,-,N/A,,Mostly Cloudy,10,2013-09-27 17:21:00
1:53 PM,89.1,75.0,63,29.89,10.0,North,9.2,-,N/A,,Mostly Cloudy,360,2013-09-27 17:53:00
2:07 PM,87.8,73.4,62,29.89,10.0,North,9.2,-,N/A,,Mostly Cloudy,10,2013-09-27 18:07:00
2:53 PM,88.0,73.0,61,29.87,10.0,North,10.4,-,N/A,,Mostly Cloudy,360,2013-09-27 18:53:00
3:53 PM,89.1,72.0,57,29.87,10.0,NNW,11.5,-,N/A,,Mostly Cloudy,330,2013-09-27 19:53:00
4:53 PM,88.0,71.1,57,29.86,10.0,NNW,9.2,-,N/A,,Mostly Cloudy,340,2013-09-27 20:53:00
5:53 PM,84.9,70.0,61,29.86,10.0,North,8.1,-,N/A,,Mostly Cloudy,350,2013-09-27 21:53:00
6:53 PM,84.0,71.1,65,29.88,10.0,NNW,6.9,-,N/A,,Overcast,340,2013-09-27 22:53:00
7:53 PM,82.9,71.1,67,29.88,10.0,North,8.1,-,N/A,,Overcast,350,2013-09-27 23:53:00
8:53 PM,82.0,71.1,69,29.90,10.0,North,6.9,-,N/A,,Mostly Cloudy,360,2013-09-28 00:53:00
9:53 PM,81.0,70.0,69,29.91,10.0,NW,6.9,-,N/A,,Mostly Cloudy,320,2013-09-28 01:53:00
10:53 PM,81.0,69.1,67,29.93,10.0,NNW,8.1,-,N/A,,Clear,340,2013-09-28 02:53:00
11:53 PM,81.0,68.0,65,29.93,10.0,North,5.8,-,N/A,,Clear,360,2013-09-28 03:53:00